Change the Weather History Date:

Tuesday, August 6, 2013

  Actual Average (KMSN) Record (KMSN)
Temperature  
Mean Temperature 76 °F 70 °F  
Max Temperature 85 °F 80 °F 98 °F (1947)
Min Temperature 67 °F 60 °F 43 °F (1992)
Degree Days  
Heating Degree Days 0 1  
Month to date heating degree days 3  
Since 1 June heating degree days 73  
Since 1 July heating degree days 13  
Cooling Degree Days 11 6  
Month to date cooling degree days 36  
Year to date cooling degree days 392  
Since 1 June cooling degree days 362  
Growing Degree Days 26 (Base 50)    
Moisture  
Dew Point 66 °F    
Average Humidity 77    
Maximum Humidity 96    
Minimum Humidity 50    
Precipitation  
Precipitation 0.01 in 0.14 in 3.18 in (1935)
Month to date precipitation 0.83  
Year to date precipitation 21.38  
Snow  
Snow 0.00 in 0.00 in 0.00 in ()
Month to date snowfall 0.0  
Since 1 June snowfall 0.0  
Since 1 July snowfall 0.0  
Snow Depth -    
Sea Level Pressure  
Sea Level Pressure 29.85 in    
Wind  
Wind Speed 4 mph (SW)    
Max Wind Speed 12 mph    
Max Gust Speed 17 mph    
Visibility 8 miles    
Events      
T = Trace of Precipitation, MM = Missing Value Source: NWS Daily Summary

Daily Weather History Graph

Daily Weather History Graph

Search for Another Location

Airport or City:

Trip Planner

Search our weather history database for the weather conditions in past years. The results will help you decide how hot, cold, wet, or windy it might be!

Date:

Astronomy

Aug. 06, 2013 Rise Set
Actual Time 5:54 AM CDT 8:12 PM CDT
Civil Twilight 5:22 AM CDT 8:44 PM CDT
Nautical Twilight 4:43 AM CDT 9:23 PM CDT
Astronomical Twilight 3:59 AM CDT 10:07 PM CDT
Moon 5:47 AM CDT (8/6) 7:45 PM CDT (8/6)
Length of Visible Light 15h 21m
Length of Day
14h 18m
Waning Crescent, 0% of the Moon is Illuminated
Aug 6
Waning Crescent
Aug 6
New
Aug 14
First Quarter
Aug 20
Full
Aug 28
Last Quarter

Hourly Weather History & Observations

Time (CDT) Temp. Heat Index Dew Point Humidity Pressure Visibility Wind Dir Wind Speed Gust Speed Precip Events Conditions
12:15 AM 68.0 °F - 65.8 °F 93% 29.87 in 10.0 mi South 3.5 mph - N/A   Overcast
12:35 AM 68.2 °F - 65.8 °F 92% 29.87 in 10.0 mi South 4.6 mph - N/A   Overcast
12:55 AM 68.2 °F - 65.8 °F 92% 29.88 in 10.0 mi South 3.5 mph - N/A   Overcast
1:15 AM 68.0 °F - 65.7 °F 92% 29.87 in 7.0 mi Calm Calm - N/A   Overcast
1:35 AM 67.5 °F - 65.5 °F 93% 29.87 in 7.0 mi Calm Calm - N/A   Overcast
1:55 AM 67.6 °F - 65.7 °F 93% 29.88 in 7.0 mi Calm Calm - N/A   Overcast
2:15 AM 67.6 °F - 65.8 °F 94% 29.87 in 7.0 mi Calm Calm - N/A   Overcast
2:35 AM 67.6 °F - 65.8 °F 94% 29.87 in 7.0 mi Calm Calm - N/A   Overcast
2:55 AM 67.6 °F - 65.8 °F 94% 29.86 in 7.0 mi Calm Calm - N/A   Overcast
3:15 AM 68.0 °F - 66.0 °F 93% 29.85 in 7.0 mi Calm Calm - N/A   Overcast
3:35 AM 67.6 °F - 65.8 °F 94% 29.85 in 5.0 mi Calm Calm - N/A   Overcast
3:55 AM 67.1 °F - 65.3 °F 94% 29.84 in 4.0 mi Calm Calm - N/A   Overcast
4:15 AM 67.6 °F - 66.2 °F 95% 29.84 in 5.0 mi Calm Calm - N/A   Overcast
4:35 AM 68.0 °F - 66.2 °F 94% 29.85 in 5.0 mi Calm Calm - N/A   Overcast
4:55 AM 68.2 °F - 66.6 °F 95% 29.85 in 3.0 mi West 4.6 mph - N/A   Overcast
5:15 AM 68.2 °F - 66.6 °F 95% 29.85 in 1.2 mi Calm Calm - N/A   Overcast
5:35 AM 68.0 °F - 66.6 °F 95% 29.85 in 2.0 mi Calm Calm - N/A   Overcast
5:55 AM 68.0 °F - 66.6 °F 95% 29.85 in 2.0 mi Calm Calm - N/A   Overcast
6:15 AM 68.0 °F - 66.6 °F 95% 29.85 in 3.0 mi Calm Calm - N/A   Overcast
6:35 AM 67.5 °F - 66.2 °F 96% 29.85 in 2.5 mi Calm Calm - N/A   Overcast
6:55 AM 68.2 °F - 66.7 °F 95% 29.85 in 2.0 mi SSW 3.5 mph - N/A   Overcast
7:15 AM 68.9 °F - 66.9 °F 93% 29.85 in 5.0 mi Calm Calm - N/A   Overcast
7:35 AM 69.8 °F - 66.6 °F 89% 29.86 in 7.0 mi Calm Calm - N/A   Overcast
7:55 AM 70.3 °F - 66.4 °F 87% 29.87 in 7.0 mi Calm Calm - N/A   Overcast
8:15 AM 70.7 °F - 66.4 °F 86% 29.88 in 10.0 mi SW 3.5 mph - N/A   Overcast
8:35 AM 71.2 °F - 66.2 °F 84% 29.88 in 10.0 mi South 4.6 mph - N/A   Overcast
8:55 AM 72.5 °F - 66.0 °F 80% 29.89 in 10.0 mi SW 5.8 mph - N/A   Overcast
9:15 AM 72.3 °F - 65.8 °F 80% 29.89 in 10.0 mi SW 5.8 mph - N/A   Overcast
9:35 AM 73.6 °F - 66.6 °F 79% 29.89 in 10.0 mi SW 6.9 mph - N/A   Overcast
9:55 AM 73.6 °F - 65.3 °F 75% 29.90 in 10.0 mi SW 5.8 mph - N/A   Mostly Cloudy
10:15 AM 75.0 °F - 65.7 °F 73% 29.89 in 10.0 mi WSW 6.9 mph - N/A   Mostly Cloudy
10:35 AM 76.3 °F - 66.2 °F 71% 29.89 in 10.0 mi WSW 5.8 mph - N/A   Scattered Clouds
10:55 AM 77.4 °F - 66.6 °F 69% 29.89 in 10.0 mi SSW 6.9 mph - N/A   Scattered Clouds
11:15 AM 77.5 °F - 64.6 °F 64% 29.89 in 10.0 mi SW 4.6 mph - N/A   Mostly Cloudy
11:35 AM 79.2 °F - 66.0 °F 64% 29.88 in 10.0 mi SW 5.8 mph - N/A   Mostly Cloudy
11:55 AM 79.0 °F - 66.0 °F 64% 29.87 in 10.0 mi WSW 8.1 mph - N/A   Mostly Cloudy
12:15 PM 79.3 °F - 64.8 °F 61% 29.87 in 10.0 mi SW 6.9 mph - N/A   Scattered Clouds
12:35 PM 80.6 °F 82.3 °F 64.6 °F 58% 29.86 in 10.0 mi SW 9.2 mph - N/A   Scattered Clouds
12:55 PM 81.3 °F 83.0 °F 64.6 °F 57% 29.85 in 10.0 mi SW 9.2 mph - N/A   Scattered Clouds
1:15 PM 81.7 °F 83.2 °F 64.2 °F 55% 29.85 in 10.0 mi WSW 11.5 mph - N/A   Scattered Clouds
1:35 PM 82.6 °F 84.1 °F 64.6 °F 54% 29.84 in 10.0 mi WSW 6.9 mph - N/A   Scattered Clouds
1:55 PM 82.4 °F 84.1 °F 64.8 °F 55% 29.84 in 10.0 mi West 10.4 mph - N/A   Scattered Clouds
2:15 PM 82.8 °F 84.3 °F 64.4 °F 54% 29.84 in 10.0 mi WSW 9.2 mph - N/A   Scattered Clouds
2:35 PM 81.9 °F 83.5 °F 64.9 °F 56% 29.83 in 10.0 mi SW 9.2 mph 17.3 mph N/A   Mostly Cloudy
2:55 PM 83.7 °F 85.3 °F 64.8 °F 53% 29.83 in 10.0 mi SW 8.1 mph - N/A   Mostly Cloudy
3:15 PM - - - N/A% 29.82 in 10.0 mi WSW 5.8 mph - N/A   Scattered Clouds
3:35 PM - - - N/A% 29.82 in 10.0 mi West 4.6 mph - N/A   Mostly Cloudy
3:55 PM 83.7 °F 85.3 °F 64.9 °F 53% 29.82 in 10.0 mi West 5.8 mph - N/A   Mostly Cloudy
4:15 PM - - - N/A% 29.82 in 10.0 mi SW 8.1 mph - N/A   Scattered Clouds
4:35 PM 83.5 °F 85.5 °F 65.7 °F 55% 29.82 in 10.0 mi WSW 4.6 mph - N/A   Scattered Clouds
4:55 PM 82.8 °F 84.5 °F 65.3 °F 55% 29.82 in 10.0 mi West 6.9 mph - N/A   Mostly Cloudy
5:15 PM 85.1 °F 86.6 °F 64.8 °F 50% 29.83 in 10.0 mi WSW 5.8 mph - N/A   Scattered Clouds
5:35 PM 84.4 °F 85.9 °F 64.6 °F 51% 29.83 in 10.0 mi West 6.9 mph - N/A   Scattered Clouds
5:55 PM 83.7 °F 84.9 °F 63.9 °F 51% 29.83 in 10.0 mi WSW 8.1 mph - N/A   Scattered Clouds
6:15 PM - - - N/A% 29.83 in 10.0 mi SW 6.9 mph - N/A   Clear
6:35 PM 82.9 °F 85.0 °F 65.7 °F 56% 29.83 in 10.0 mi SW 4.6 mph - N/A   Clear
6:55 PM 81.5 °F 83.9 °F 66.7 °F 61% 29.83 in 10.0 mi SSW 6.9 mph - N/A   Clear
7:15 PM 80.6 °F 82.9 °F 66.9 °F 63% 29.83 in 10.0 mi SW 5.8 mph - N/A   Clear
7:35 PM 80.6 °F 82.9 °F 66.7 °F 63% 29.82 in 10.0 mi SSW 5.8 mph - N/A   Mostly Cloudy
7:55 PM 79.0 °F - 67.1 °F 67% 29.82 in 10.0 mi SSW 6.9 mph - N/A   Scattered Clouds
8:15 PM - - - N/A% 29.81 in 10.0 mi SSW 4.6 mph - N/A   Clear
8:35 PM 77.4 °F - 68.0 °F 73% 29.81 in 10.0 mi South 6.9 mph - N/A   Clear
8:55 PM 77.0 °F - 68.0 °F 74% 29.81 in 10.0 mi South 5.8 mph - N/A   Clear
9:15 PM 76.6 °F - 68.0 °F 75% 29.81 in 10.0 mi SSW 8.1 mph - N/A   Clear
9:35 PM 76.1 °F - 68.2 °F 76% 29.83 in 10.0 mi SW 4.6 mph - N/A   Clear
9:55 PM 75.6 °F - 68.2 °F 78% 29.83 in 10.0 mi SSW 4.6 mph - N/A   Clear
10:15 PM 74.8 °F - 68.2 °F 80% 29.83 in 10.0 mi SW 4.6 mph - N/A   Clear
10:35 PM 74.8 °F - 68.4 °F 80% 29.81 in 10.0 mi SW 5.8 mph - N/A   Clear
10:55 PM 74.7 °F - 69.6 °F 84% 29.82 in 10.0 mi SSW 6.9 mph - N/A   Clear
11:15 PM 74.3 °F - 69.8 °F 86% 29.81 in 10.0 mi SSW 5.8 mph - N/A   Clear
11:35 PM 74.5 °F - 70.3 °F 87% 29.81 in 10.0 mi SW 5.8 mph - N/A   Clear
11:55 PM 74.7 °F - 70.7 °F 87% 29.81 in 7.0 mi SW 6.9 mph - N/A   Clear